Location: Haut-Orb�
(46.9667°N, 0.1500°W)
Time: 21:37:23
(UTC+00:00)

Daily predictions for brighter satellites

Satellite Brightness Start Highest point End
(mag) Time Altitude Azimuth Time Altitude Azimuth Time Altitude Azimuth
Cosmos 1354 Rocket 4.4 16:38:04 10° NNW 16:43:25 75° WSW 16:48:43 10° SSE
NOAA 6 4.4 16:42:00 10° SE 16:46:52 44° ENE 16:51:42 10° N
Lacrosse 5 rocket 2.8 16:44:28 10° WNW 16:47:30 23° NNW 16:50:39 10° NE
Meteor 1-31 Rocket 4.2 16:44:38 10° S 16:48:14 42° W 16:51:53 10° NNW
Cosmos 1656 4.4 16:44:37 10° NNW 16:49:31 31° NE 16:54:27 10° ESE
Cosmos 44 4.0 16:45:59 10° NNW 16:50:21 31° NE 16:54:28 10° ESE
ISS -3.1 16:50:30 10° W 16:53:49 47° NNW 16:57:07 10° ENE
RESURS DK-1 4.5 16:51:59 10° W 16:55:11 21° NW 16:58:23 10° N
CZ-2C R/B 2.9 16:51:03 10° SSE 16:56:06 83° ENE 17:00:57 10° NNW
SL-16 R/B 4.4 16:54:53 10° WNW 16:58:17 16° NW 17:01:43 10° N
USA 306 2.9 16:55:35 10° WSW 16:59:50 86° NW 17:04:03 10° ENE
Cosmos 1766 Rocket 3.5 16:56:38 10° N 17:01:01 85° E 17:05:22 10° S
NOSS 2-1 (E) 2.7 17:02:32 10° SW 17:05:48 85° SE 17:09:09 10° NE
deb Kosmos-1763 4.4 17:05:03 10° S 17:08:15 39° ESE 17:11:29 10° NE
Meteor 2-2 Rocket 4.4 17:04:25 10° S 17:10:23 66° E 17:16:21 10° NNE
CZ-4C R/B 3.9 17:06:11 10° NNW 17:11:28 24° NNE 17:16:42 12° ENE
CZ-2D R/B 3.8 17:09:08 10° SE 17:12:38 34° ENE 17:16:08 10° N
USA 267 3.6 17:06:20 10° NE 17:12:46 62° NNW 17:19:10 10° WSW
Cosmos 2221 2.6 17:09:46 10° S 17:13:55 53° E 17:18:05 10° NNE
COSMO-SKYMED 1 3.9 17:10:59 10° NE 17:14:12 20° E 17:17:24 10° SE
USA 307 3.0 17:11:34 10° WSW 17:15:51 76° NNW 17:19:27 14° NE
CORIOLIS 4.1 17:13:01 10° SSE 17:18:22 72° ENE 17:23:47 10° N
Lacrosse 5 2.8 17:14:01 10° WNW 17:18:58 52° SW 17:23:54 10° SSE
Cosmos 1939 Rocket 2.9 17:14:56 10° SSE 17:19:04 87° E 17:23:12 10° NNW
Okean O Rocket 2.6 17:15:58 10° ESE 17:19:35 25° ENE 17:23:13 10° N
Cosmos 990 Rocket 4.4 17:16:05 10° N 17:20:58 38° ENE 17:25:47 10° SE
PSLV R/B 3.8 17:17:37 10° SSE 17:21:11 49° ENE 17:24:46 10° N
Meteor 2-19 Rocket 4.4 17:15:29 10° N 17:21:34 70° E 17:27:38 10° SSE
USA 229 DEB 4.2 17:14:56 10° NW 17:21:49 46° NE 17:29:10 10° ESE
USA 229 4.2 17:15:01 10° NW 17:21:55 45° NE 17:29:15 10° ESE
Cosmos 1862 4.1 17:19:12 10° NNW 17:23:07 56° W 17:27:01 10° S
ATLAS CENTAUR R/B 2.2 17:19:14 10° WSW 17:23:14 49° NW 17:27:34 10° NNE
deb Chang Zheng 4 4.2 17:19:57 10° SE 17:23:45 31° ENE 17:27:35 10° N
Iridium 2 4.2 17:20:21 10° N 17:24:05 62° W 17:27:46 10° S
Cosmos 1833 Rocket 3.8 17:20:20 10° SSE 17:24:42 24° ESE 17:27:36 16° ENE
MOS 1-B Rocket 4.4 17:19:30 10° NNE 17:24:52 39° E 17:30:43 10° SSE
CZ-4B R/B 3.5 17:22:14 10° SE 17:27:21 43° ENE 17:32:25 10° N
ATLAS 2AS CENTAUR R/B 4.1 17:21:54 10° W 17:28:53 34° NNW 17:35:38 10° NE
Cosmos 1464 Rocket 4.1 17:24:38 10° S 17:31:00 88° E 17:37:26 10° N
YAOGAN 1 4.2 17:33:05 16° NE 17:33:05 16° NE 17:34:51 10° NNE
Cosmos 1606 2.9 17:31:09 10° SSW 17:34:53 72° W 17:38:41 10° N
ARGOS 3.5 17:31:51 10° SE 17:36:52 40° ENE 17:41:53 10° N
USA 308 3.2 17:33:53 10° WSW 17:38:05 59° NNW 17:40:45 21° NE
Cosmos 1408 Rocket 3.6 17:36:27 10° NNW 17:40:48 79° W 17:45:09 10° S
Cosmos 1743 Rocket 3.5 17:40:07 10° N 17:44:26 62° ENE 17:48:42 10° SSE
USA 276 2.3 17:42:01 10° WNW 17:45:07 54° N 17:46:02 37° ENE
NOSS 3-1 (A) 4.1 17:38:09 10° NW 17:45:24 62° NE 17:53:56 10° SE
NOSS 2-1 (C) 4.3 17:44:10 10° WSW 17:47:07 32° NW 17:49:17 16° NNE
MOS 1-B 4.3 17:41:40 10° SSE 17:47:26 80° ENE 17:53:14 10° NNW
Nadezhda 4 Rocket 4.1 17:42:03 10° N 17:48:23 85° W 17:54:43 10° S
NOSS 3-1 (C) 4.1 17:41:44 10° NW 17:49:12 88° NE 17:57:58 10° SE
Cosmos 2084 4.0 17:45:14 10° NNW 17:49:16 39° NE 17:50:50 28° E
H-2A R/B 2.0 17:45:31 10° SSE 17:50:47 81° ENE 17:55:56 10° NNW
ATLAS 5 CENTAUR R/B 3.4 17:42:20 10° NW 17:50:56 30° N 17:52:37 23° NE
Meteor 1-25 Rocket 4.1 17:46:06 10° N 17:51:38 64° ENE 17:57:09 10° SSE
Cosmos 1898 Rocket 3.5 17:51:22 10° NNW 17:56:34 55° ENE 18:01:41 10° SE
CZ-2C R/B 2.6 17:52:14 10° NNE 17:57:24 54° E 18:02:27 10° S
Cosmos 1092 Rocket 3.9 17:51:17 10° N 17:57:39 70° E 18:03:57 10° SSE
CZ-4 R/B 3.5 18:00:28 14° NNE 18:00:28 14° NNE 18:01:08 10° N
SKYMED 2 3.5 17:59:31 19° NNE 18:02:33 59° E 18:06:50 10° S
Cosmos 468 Rocket 4.0 18:00:03 10° S 18:05:05 60° ESE 18:07:57 26° NE
Cosmos 1809 Rocket 4.3 17:58:58 10° N 18:05:05 70° E 18:11:09 10° SSE
USA 305 3.7 18:04:05 10° W 18:08:07 41° NNW 18:09:27 31° NNE
Cosmos 1782 3.1 18:04:33 10° SSE 18:08:05 43° ESE 18:08:05 43° ESE
ERBS 2.8 18:06:58 10° WSW 18:10:04 46° NNW 18:10:32 42° N
Cosmos 2369 4.0 18:06:33 10° NNW 18:12:04 45° NE 18:13:55 34° E
Cosmos 1428 Rocket 4.3 18:05:58 10° N 18:12:07 77° E 18:18:14 10° SSE
SJ 16-02 3.8 18:09:47 10° NW 18:13:17 24° W 18:16:47 10° SSW
Cosmos 2322 Rocket 4.2 18:10:51 10° N 18:12:08 12° NNE 18:12:08 12° NNE
Cosmos 2034 Rocket 4.4 18:07:45 10° SSW 18:13:52 64° WNW 18:20:01 10° N
Cosmos 1627 Rocket 4.3 18:08:24 10° N 18:14:39 79° E 18:20:47 10° SSE
Cosmos 1500 Rocket 4.1 18:10:48 10° NNW 18:15:12 60° W 18:19:33 10° S
Cosmos 540 Rocket 3.6 18:13:27 10° S 18:18:18 47° ESE 18:18:55 45° E
Cosmos 1340 Rocket 3.9 18:15:14 10° NNW 18:19:08 46° W 18:23:01 10° SSW
Cosmos 1697 Rocket 2.5 18:17:38 10° NNW 18:23:17 76° ENE 18:27:53 16° SSE
Cosmos 1980 Rocket 2.4 18:19:18 10° NNW 18:24:45 44° NE 18:25:04 44° ENE
GEOS 3 Rocket 3.7 18:20:34 11° SE 18:25:35 78° SW 18:30:49 10° NW
Cosmos 1805 Rocket 3.6 18:21:34 10° NNW 18:25:56 78° W 18:30:14 10° S
SL-16 R/B 4.0 18:23:24 10° N 18:25:27 16° NNE 18:25:27 16° NNE
Cosmos 1933 3.5 18:23:20 10° SSW 18:27:23 72° W 18:29:20 30° N
Lacrosse 5 rocket 3.1 18:24:44 10° NW 18:27:04 19° N 18:27:04 19° N
ISS -2.3 18:27:53 10° WNW 18:30:12 31° NNW 18:30:12 31° NNW
Cosmos 2279 Rocket 4.0 18:25:22 10° SSE 18:31:25 56° E 18:35:13 23° NNE
Cosmos 44 4.1 18:27:10 10° NW 18:31:45 46° WSW 18:36:03 10° SSE
Cosmos 2082 Rocket 2.9 18:27:50 10° S 18:31:51 34° SE 18:31:51 34° SE
Feng Yun 1-1 Rocket 4.3 18:27:36 10° SSE 18:33:32 78° ENE 18:39:27 10° NNW
COSMOS 2406 3.1 18:29:43 10° SSW 18:35:24 65° ESE 18:36:33 53° ENE
Cosmos 1602 4.3 18:31:50 10° NNW 18:35:36 56° W 18:39:22 10° S
Cosmos 2278 4.3 18:33:06 10° NNW 18:37:31 38° NNE 18:37:31 38° NNE
Sich 1 3.2 18:35:21 10° NNW 18:39:37 71° W 18:43:52 10° S
USA 306 4.0 18:36:11 10° WNW 18:40:03 35° NNW 18:40:03 35° NNW
Cosmos 1634 Rocket 4.0 18:33:56 10° S 18:40:15 83° W 18:46:39 10° N
SL-08 RB Rocket 3.7 18:37:13 10° S 18:41:53 81° WSW 18:46:33 10° NNW
Cosmos 1937 Rocket 3.5 18:40:39 10° NNW 18:45:59 82° WSW 18:49:00 27° SSE
Meteor 1-26 Rocket 4.3 18:40:06 10° SSW 18:46:00 83° W 18:51:35 13° N
Cosmos 1763 Rocket 3.9 18:43:27 10° SW 18:48:25 58° WNW 18:50:33 33° N
Cosmos 841 Rocket 3.6 18:43:56 10° S 18:48:11 56° SSE 18:48:11 56° SSE
COSMO-SKYMED 1 3.6 18:48:08 22° N 18:50:35 45° WNW 18:54:43 10° SW
NOSS 2-2 (C) 4.2 18:49:22 10° NW 18:54:22 68° NE 18:54:22 68° NE
USA 267 4.1 18:53:24 33° NNE 18:55:08 38° N 19:01:03 10° WNW
Okean O Rocket 3.0 18:51:36 10° SSW 18:55:45 39° W 18:59:56 10° NNW
Landsat 5 4.2 18:55:32 49° NW 18:55:59 52° WNW 18:59:59 10° SSW
USA 307 4.3 18:52:18 10° WNW 18:55:29 31° NNW 18:55:29 31° NNW
ATLAS CENTAUR R/B 2.5 18:49:15 10° SW 18:57:47 74° NW 18:57:57 73° NNW
Meteor 2-16 Rocket 4.4 18:53:21 10° N 18:59:29 86° W 19:05:36 10° S
CZ-4C R/B 2.9 18:54:31 10° NW 19:01:27 58° NE 19:01:55 57° ENE
Meteor 1-14 Rocket 4.2 18:56:08 10° NNW 19:01:55 83° W 19:07:48 10° S
ATLAS CENTAUR R/B 4.0 19:00:57 10° NW 19:03:12 14° NNW 19:03:46 13° NNW
COSMOS 2455 3.0 18:59:23 10° SSW 19:04:20 57° SSE 19:04:20 57° SSE
Cosmos 2180 Rocket 4.3 19:00:03 10° S 19:06:23 79° E 19:06:23 79° E
YAOGAN 1 4.5 19:10:14 23° NNW 19:10:14 23° NNW 19:11:58 10° NNW
Cosmos 1833 Rocket 3.1 19:02:38 10° SW 19:08:10 59° WNW 19:09:20 49° NNW
USA 229 DEB 4.4 19:05:54 10° NW 19:13:05 58° WSW 19:18:34 20° SSE
USA 229 4.4 19:05:59 10° NW 19:13:12 59° WSW 19:18:32 21° SSE
ATLAS 2AS CENTAUR R/B 4.4 19:16:34 10° NW 19:22:14 22° N 19:23:23 21° N
Cosmos 1980 Rocket 4.0 20:03:36 10° NW 20:06:53 27° WNW 20:06:53 27° WNW
Cosmos 2082 Rocket 4.3 20:11:49 10° WSW 20:13:46 20° WSW 20:13:46 20° WSW
CZ-4C R/B 4.3 20:43:09 10° NW 20:47:08 32° WNW 20:47:08 32° WNW
